N1LID Weather Reports


time (UTC)temp
C
wind
direction
speed
KPH
gust
KPH
rain 1hr
cm
rain 24hr
cm
rain mn
cm
humidity
%
barometer
mb
20260504151003 20 234 3.2 12.9 0.00 0.00 0.00 44 1014.5
20260504150504 19 221 1.6 9.7 0.00 0.00 0.00 44 1014.6
20260504141004 16 228 0.0 8.0 0.00 0.00 0.00 53 1014.6
20260504140504 16 228 0.0 14.5 0.00 0.00 0.00 55 1014.6
20260504130503 14 215 0.0 16.1 0.00 0.00 0.00 62 1015.3
20260504110503 11 235 4.8 16.1 0.00 0.00 0.00 67 1015.8
20260504100503 11 250 1.6 16.1 0.00 0.00 0.00 69 1015.8
20260504082006 11 257 4.8 12.9 0.00 0.00 0.00 71 1015.9
20260504081516 11 234 0.0 11.3 0.00 0.00 0.00 71 1016.0
20260504081008 11 244 4.8 11.3 0.00 0.00 0.00 71 1015.9
20260504080507 11 246 3.2 12.9 0.00 0.00 0.00 71 1015.9
20260504050505 7 239 0.0 0.0 0.00 0.00 0.00 81 1016.2
20260504050015 7 239 0.0 0.0 0.00 0.00 0.00 81 1016.3
20260504045504 7 233 0.0 0.0 0.00 0.00 0.00 81 1016.3
20260504045003 7 228 0.0 0.0 0.00 0.00 0.00 80 1016.4
20260504044507 7 228 0.0 0.0 0.00 0.00 0.00 80 1016.3
20260504044003 7 228 0.0 0.0 0.00 0.00 0.00 80 1016.3
20260504043505 7 228 0.0 0.0 0.00 0.00 0.00 79 1016.4
20260504043019 7 228 0.0 0.0 0.00 0.00 0.00 79 1016.4
20260504042507 7 228 0.0 0.0 0.00 0.00 0.00 79 1016.3
20260504042008 7 228 0.0 0.0 0.00 0.00 0.00 79 1016.2
20260504041523 7 228 0.0 0.0 0.00 0.00 0.00 79 1016.2
20260504041007 7 228 0.0 0.0 0.00 0.00 0.00 78 1016.3
20260504040507 7 228 0.0 0.0 0.00 0.00 0.00 78 1016.3
20260504040017 7 228 0.0 0.0 0.00 0.00 0.00 78 1016.2
20260504035505 7 228 0.0 0.0 0.00 0.00 0.00 77 1016.3
20260504035003 7 228 0.0 0.0 0.00 0.00 0.00 77 1016.2
20260504034512 7 228 0.0 0.0 0.00 0.00 0.00 77 1016.2
20260504034007 7 228 0.0 0.0 0.00 0.00 0.00 77 1016.2
20260504033507 7 228 0.0 0.0 0.00 0.00 0.00 77 1016.1
20260504033020 7 228 0.0 0.0 0.00 0.00 0.00 76 1016.0
20260504032508 7 228 0.0 0.0 0.00 0.00 0.00 76 1016.0
20260504032009 7 228 0.0 0.0 0.00 0.00 0.00 75 1016.0
20260504031525 7 228 0.0 0.0 0.00 0.00 0.00 75 1016.0
20260504031009 7 228 0.0 0.0 0.00 0.00 0.00 74 1016.0
20260504030509 7 228 0.0 0.0 0.00 0.00 0.00 75 1016.0
20260504030025 7 228 0.0 0.0 0.00 0.00 0.00 75 1016.0
20260504025508 7 228 0.0 0.0 0.00 0.00 0.00 74 1016.0
20260504025007 7 228 0.0 0.0 0.00 0.00 0.00 74 1016.0
20260504024513 7 228 0.0 0.0 0.00 0.00 0.00 73 1016.0
20260504024003 7 228 0.0 0.0 0.00 0.00 0.00 73 1016.0
20260504023506 7 228 0.0 0.0 0.00 0.00 0.00 73 1015.9
20260504023018 7 228 0.0 0.0 0.00 0.00 0.00 73 1015.9
20260504022509 7 228 0.0 0.0 0.00 0.00 0.00 72 1015.9
20260504022008 7 228 0.0 0.0 0.00 0.00 0.00 72 1015.8
20260504021522 8 228 0.0 0.0 0.00 0.00 0.00 71 1015.7
20260504021007 8 228 0.0 0.0 0.00 0.00 0.00 71 1015.8
20260504020511 8 228 0.0 0.0 0.00 0.00 0.00 71 1015.7
20260504020024 8 228 0.0 0.0 0.00 0.00 0.00 70 1015.7
20260504015509 8 228 0.0 0.0 0.00 0.00 0.00 70 1015.7
20260504015011 8 228 0.0 0.0 0.00 0.00 0.00 69 1015.7
20260504014526 8 228 0.0 0.0 0.00 0.00 0.00 68 1015.7
20260504014007 8 228 0.0 0.0 0.00 0.00 0.00 68 1015.7
20260504013506 9 228 0.0 0.0 0.00 0.00 0.00 67 1015.7
20260504013026 9 228 0.0 0.0 0.00 0.00 0.00 66 1015.7
20260504012505 9 228 0.0 0.0 0.00 0.00 0.00 65 1015.7
20260504012007 9 228 0.0 0.0 0.00 0.00 0.00 64 1015.7
20260504011518 10 228 0.0 0.0 0.00 0.00 0.00 63 1015.5
20260504011006 10 228 0.0 0.0 0.00 0.00 0.00 62 1015.5
20260504010503 10 228 0.0 0.0 0.00 0.00 0.00 60 1015.5
20260504010009 10 228 0.0 0.0 0.00 0.00 0.00 60 1015.5
20260504005504 10 228 0.0 0.0 0.00 0.00 0.00 59 1015.6
20260504005004 11 228 0.0 0.0 0.00 0.00 0.00 58 1015.5
20260504004516 11 228 0.0 0.0 0.00 0.00 0.00 57 1015.5
20260504004008 11 228 0.0 0.0 0.00 0.00 0.00 56 1015.4
20260504003503 11 228 0.0 0.0 0.00 0.00 0.00 55 1015.4
20260504003010 11 228 0.0 0.0 0.00 0.00 0.00 55 1015.3
20260504002504 12 228 0.0 0.0 0.00 0.00 0.00 53 1015.3
20260504002004 12 228 0.0 0.0 0.00 0.00 0.00 52 1015.3
20260504001521 12 228 0.0 0.0 0.00 0.00 0.00 51 1015.2
20260504001004 12 228 0.0 0.0 0.00 0.00 0.00 49 1015.2
20260504000506 13 228 0.0 0.0 0.00 0.00 0.00 48 1015.1
20260504000031 13 228 0.0 0.0 0.00 0.00 0.00 47 1015.1
20260503235509 13 228 0.0 0.0 0.00 0.00 0.00 46 1015.0
20260503235008 14 228 0.0 0.0 0.00 0.00 0.00 46 1014.9
20260503234519 14 228 0.0 0.0 0.00 0.00 0.00 45 1014.9
20260503234007 15 228 0.0 0.0 0.00 0.00 0.00 45 1014.8
20260503233507 15 228 0.0 0.0 0.00 0.00 0.00 44 1014.7
20260503233022 15 228 0.0 0.0 0.00 0.00 0.00 43 1014.6
20260503232507 15 228 0.0 0.0 0.00 0.00 0.00 41 1014.5
20260503232004 15 228 0.0 0.0 0.00 0.00 0.00 40 1014.5
20260503231512 15 228 0.0 0.0 0.00 0.00 0.00 39 1014.5
20260503231004 15 228 0.0 0.0 0.00 0.00 0.00 39 1014.5
20260503230504 15 229 0.0 0.0 0.00 0.00 0.00 38 1014.5
20260503230012 15 228 0.0 0.0 0.00 0.00 0.00 39 1014.5
20260503225504 15 254 0.0 0.0 0.00 0.00 0.00 40 1014.5
20260503225009 15 302 0.0 0.0 0.00 0.00 0.00 39 1014.5
20260503224518 15 302 0.0 0.0 0.00 0.00 0.00 38 1014.5
20260503224009 15 302 0.0 9.7 0.00 0.00 0.00 39 1014.6
20260503223507 15 234 1.6 9.7 0.00 0.00 0.00 38 1014.5
20260503223030 15 226 0.0 6.4 0.00 0.00 0.00 38 1014.6
20260503222509 15 226 0.0 6.4 0.00 0.00 0.00 37 1014.6
20260503222010 15 205 0.0 0.0 0.00 0.00 0.00 37 1014.6
20260503221528 15 360 0.0 0.0 0.00 0.00 0.00 37 1014.6
20260503221012 16 301 0.0 0.0 0.00 0.00 0.00 38 1014.7
20260503220504 15 210 0.0 0.0 0.00 0.00 0.00 39 1014.6
20260503220014 15 246 0.0 6.4 0.00 0.00 0.00 37 1014.7
20260503215506 15 246 0.0 14.5 0.00 0.00 0.00 38 1014.7
20260503215003 15 202 1.6 14.5 0.00 0.00 0.00 38 1014.7
20260503214523 15 315 0.0 14.5 0.00 0.00 0.00 37 1014.8
20260503214010 15 330 0.0 14.5 0.00 0.00 0.00 36 1014.7
20260503213509 15 333 0.0 8.0 0.00 0.00 0.00 38 1014.6
20260503213023 15 326 1.6 8.0 0.00 0.00 0.00 37 1014.7
20260503212508 15 243 0.0 8.0 0.00 0.00 0.00 37 1014.7
20260503212012 15 221 0.0 8.0 0.00 0.00 0.00 37 1014.7
20260503211526 15 313 1.6 8.0 0.00 0.00 0.00 36 1014.6
20260503211010 15 270 0.0 6.4 0.00 0.00 0.00 37 1014.7
20260503210514 15 269 0.0 9.7 0.00 0.00 0.00 37 1014.6
20260503210018 15 351 1.6 9.7 0.00 0.00 0.00 36 1014.5
20260503205507 15 184 0.0 9.7 0.00 0.00 0.00 39 1014.4
20260503205007 15 340 0.0 9.7 0.00 0.00 0.00 38 1014.3
20260503204518 15 328 1.6 8.0 0.00 0.00 0.00 37 1014.5
20260503204007 15 318 0.0 9.7 0.00 0.00 0.00 38 1014.4
20260503203509 15 262 0.0 14.5 0.00 0.00 0.00 37 1014.7
20260503203028 15 278 3.2 14.5 0.00 0.00 0.00 38 1014.6
20260503202507 15 277 0.0 11.3 0.00 0.00 0.00 37 1014.5
20260503202009 15 296 0.0 12.9 0.00 0.00 0.00 37 1014.7
20260503201527 15 337 6.4 12.9 0.00 0.00 0.00 38 1014.8
20260503201007 15 242 1.6 12.9 0.00 0.00 0.00 38 1014.8
20260503200509 15 342 1.6 12.9 0.00 0.00 0.00 38 1015.0
20260503200021 15 329 1.6 9.7 0.00 0.00 0.00 38 1015.1
20260503195508 15 330 1.6 9.7 0.00 0.00 0.00 38 1015.2
20260503195007 15 328 0.0 1.6 0.00 0.00 0.00 38 1015.3
20260503194526 15 343 0.0 8.0 0.00 0.00 0.00 38 1015.4
20260503194009 15 343 0.0 12.9 0.00 0.00 0.00 38 1015.5
20260503193510 15 344 4.8 12.9 0.00 0.00 0.00 38 1015.6
20260503193020 15 350 0.0 9.7 0.00 0.00 0.00 36 1015.5
20260503192507 14 337 4.8 17.7 0.00 0.00 0.00 38 1015.5
20260503192002 14 333 3.2 17.7 0.00 0.00 0.00 38 1015.7
20260503191503 14 334 3.2 17.7 0.00 0.00 0.00 39 1015.7
20260503191004 15 352 8.0 17.7 0.00 0.00 0.00 37 1015.8
20260503190502 15 285 3.2 12.9 0.00 0.00 0.00 39 1015.9
20260503190005 15 331 4.8 12.9 0.00 0.00 0.00 39 1015.7
20260503185502 15 336 0.0 12.9 0.00 0.00 0.00 39 1015.8
20260503185003 15 325 4.8 14.5 0.00 0.00 0.00 37 1015.9
20260503184507 15 340 1.6 14.5 0.00 0.00 0.00 37 1016.0
20260503184004 15 327 4.8 12.9 0.00 0.00 0.00 39 1016.1
20260503183504 15 340 3.2 9.7 0.00 0.00 0.00 39 1016.0
20260503183009 15 332 1.6 9.7 0.00 0.00 0.00 39 1016.0
20260503182502 15 273 0.0 6.4 0.00 0.00 0.00 37 1016.0
20260503182003 15 226 0.0 6.4 0.00 0.00 0.00 39 1016.0
20260503181505 15 317 1.6 8.0 0.00 0.00 0.00 39 1015.9
20260503181002 14 284 1.6 8.0 0.00 0.00 0.00 37 1015.9
20260503180505 15 307 0.0 16.1 0.00 0.00 0.00 38 1016.1
20260503180004 15 341 4.8 16.1 0.00 0.00 0.00 38 1016.1
20260503175504 14 242 0.0 8.0 0.00 0.00 0.00 40 1016.1
20260503175003 14 349 0.0 14.5 0.00 0.00 0.00 42 1016.1
20260503174513 14 290 1.6 14.5 0.00 0.00 0.00 39 1016.1
20260503174007 14 227 0.0 11.3 0.00 0.00 0.00 41 1016.1
20260503173503 14 44 0.0 11.3 0.00 0.00 0.00 39 1016.2
20260503173018 14 275 0.0 8.0 0.00 0.00 0.00 41 1016.2
20260503172505 14 342 0.0 16.1 0.00 0.00 0.00 40 1016.3
20260503172004 14 222 1.6 16.1 0.00 0.00 0.00 40 1016.3
20260503171525 14 315 4.8 17.7 0.00 0.00 0.00 42 1016.4
20260503171003 13 200 3.2 17.7 0.00 0.00 0.00 41 1016.4
20260503170503 13 325 1.6 16.1 0.00 0.00 0.00 40 1016.6